TimePST,TemperatureF,Dew PointF,Humidity,Sea Level PressureIn,VisibilityMPH,Wind Direction,Wind SpeedMPH,Gust SpeedMPH,PrecipitationIn,Events,Conditions,WindDirDegrees,DateUTC
12:54 AM,50.0,45.0,83,30.32,10.0,SW,4.6,-,N/A,,Overcast,220,2013-02-23 08:54:00
1:54 AM,48.9,45.0,86,30.30,10.0,South,3.5,-,N/A,,Mostly Cloudy,180,2013-02-23 09:54:00
2:54 AM,48.0,44.1,86,30.27,10.0,South,4.6,-,N/A,,Mostly Cloudy,170,2013-02-23 10:54:00
3:01 AM,48.2,44.6,87,30.24,10.0,South,4.6,-,N/A,,Scattered Clouds,180,2013-02-23 11:01:00
3:50 AM,48.2,44.6,87,30.23,10.0,SSW,5.8,-,N/A,,Overcast,200,2013-02-23 11:50:00
3:54 AM,48.9,45.0,86,30.27,10.0,SSW,6.9,-,N/A,,Overcast,210,2013-02-23 11:54:00
4:54 AM,50.0,45.0,83,30.27,10.0,WSW,4.6,-,N/A,,Overcast,240,2013-02-23 12:54:00
5:19 AM,50.0,44.6,82,30.23,10.0,SW,3.5,-,N/A,,Overcast,230,2013-02-23 13:19:00
5:51 AM,50.0,44.6,82,30.23,10.0,Calm,Calm,-,N/A,,Overcast,0,2013-02-23 13:51:00
5:54 AM,50.0,45.0,83,30.27,10.0,South,4.6,-,N/A,,Overcast,190,2013-02-23 13:54:00
6:08 AM,50.0,46.4,87,30.23,9.0,SSW,4.6,-,N/A,,Overcast,210,2013-02-23 14:08:00
6:21 AM,50.0,46.4,87,30.23,9.0,SSW,3.5,-,N/A,,Overcast,200,2013-02-23 14:21:00
6:39 AM,50.0,46.4,87,30.23,1.5,SW,5.8,-,N/A,,Overcast,230,2013-02-23 14:39:00
6:45 AM,48.2,46.4,93,30.24,1.5,WSW,6.9,-,0.01,Rain,Light Rain,250,2013-02-23 14:45:00
6:48 AM,48.2,46.4,93,30.24,2.5,WSW,6.9,-,0.01,,Overcast,250,2013-02-23 14:48:00
6:54 AM,48.9,46.9,93,30.28,3.0,West,12.7,19.6,0.03,Rain,Rain,270,2013-02-23 14:54:00
7:20 AM,50.0,46.4,87,30.24,10.0,West,12.7,19.6,0.00,,Overcast,260,2013-02-23 15:20:00
7:54 AM,48.9,44.1,83,30.30,10.0,West,12.7,18.4,0.00,,Mostly Cloudy,280,2013-02-23 15:54:00
8:04 AM,48.2,42.8,82,30.26,10.0,West,13.8,25.3,N/A,,Partly Cloudy,270,2013-02-23 16:04:00
8:54 AM,50.0,42.1,74,30.30,10.0,West,16.1,24.2,N/A,,Partly Cloudy,270,2013-02-23 16:54:00
9:54 AM,51.1,42.1,71,30.30,10.0,West,11.5,18.4,N/A,,Partly Cloudy,280,2013-02-23 17:54:00
10:54 AM,52.0,41.0,66,30.29,10.0,WNW,10.4,-,N/A,,Scattered Clouds,300,2013-02-23 18:54:00
11:54 AM,52.0,41.0,66,30.27,10.0,WNW,11.5,-,N/A,,Scattered Clouds,290,2013-02-23 19:54:00
12:54 PM,54.0,41.0,62,30.25,10.0,West,12.7,-,N/A,,Scattered Clouds,280,2013-02-23 20:54:00
1:54 PM,53.1,41.0,64,30.22,10.0,West,16.1,23.0,N/A,,Clear,260,2013-02-23 21:54:00
2:54 PM,53.1,39.9,61,30.22,10.0,West,16.1,26.5,N/A,,Clear,270,2013-02-23 22:54:00
3:54 PM,52.0,41.0,66,30.21,9.0,West,17.3,26.5,N/A,,Partly Cloudy,280,2013-02-23 23:54:00
4:54 PM,50.0,42.1,74,30.19,9.0,West,17.3,26.5,N/A,,Clear,270,2013-02-24 00:54:00
5:54 PM,50.0,42.1,74,30.20,8.0,West,17.3,27.6,N/A,,Clear,270,2013-02-24 01:54:00
6:54 PM,48.9,42.1,77,30.22,10.0,West,11.5,23.0,N/A,,Clear,280,2013-02-24 02:54:00
7:54 PM,50.0,41.0,71,30.24,10.0,WNW,8.1,18.4,N/A,,Clear,300,2013-02-24 03:54:00
8:54 PM,48.9,41.0,74,30.25,10.0,Calm,Calm,-,N/A,,Clear,0,2013-02-24 04:54:00
9:54 PM,44.1,39.0,82,30.26,9.0,East,3.5,-,N/A,,Clear,90,2013-02-24 05:54:00
10:54 PM,42.1,37.9,85,30.25,9.0,ESE,4.6,-,N/A,,Clear,120,2013-02-24 06:54:00
11:54 PM,42.1,39.0,89,30.25,9.0,Calm,Calm,-,N/A,,Clear,0,2013-02-24 07:54:00